Comanche, TX

4:56 PM CDT on June 24, 2017 (GMT -0500)
Comanche

Weather History for KMKN - November, 2012

Change the Weather History Date:

Thursday, November 8, 2012

  Actual Average (KSEP) Record (KSEP)
Temperature  
Mean Temperature 68 °F -  
Max Temperature 82 °F 67 °F 92 °F (1980)
Min Temperature 53 °F 44 °F 24 °F (1991)
Cooling Degree Days 2    
Growing Degree Days 18 (Base 50)    
Moisture  
Dew Point 48 °F    
Average Humidity 48    
Maximum Humidity 72    
Minimum Humidity 30    
Precipitation  
Precipitation 0.00 in - - ()
Sea Level Pressure  
Sea Level Pressure 30.02 in    
Wind  
Wind Speed 11 mph (South)    
Max Wind Speed 23 mph    
Max Gust Speed 30 mph    
Visibility 10 miles    
Events      
Averages and records for this station are not official NWS values.
T = Trace of Precipitation, MM = Missing Value Source: NWS Daily Summary

Daily Weather History Graph

Daily Weather History Graph

Search for Another Location

Airport or City:

Trip Planner

Search our weather history database for the weather conditions in past years. The results will help you decide how hot, cold, wet, or windy it might be!

Date:

Astronomy

Nov. 08, 2012 Rise Set
Actual Time 6:57 AM CST 5:38 PM CST
Civil Twilight 6:31 AM CST 6:04 PM CST
Nautical Twilight 6:02 AM CST 6:33 PM CST
Astronomical Twilight 5:33 AM CST 7:02 PM CST
Moon 1:14 AM CST (11/8) 2:02 PM CST (11/8)
Length of Visible Light 11h 32m
Length of Day
10h 41m
Waning Crescent, 32% of the Moon is Illuminated
Nov 8
Waning Crescent
Nov 13
New
Nov 20
First Quarter
Nov 28
Full
Dec 6
Last Quarter

Hourly Weather History & Observations

Time (CST) Temp. Dew Point Humidity Pressure Visibility Wind Dir Wind Speed Gust Speed Precip Events Conditions
12:35 AM 59.0 °F 41.0 °F 51% 30.06 in 10.0 mi SE 6.9 mph - N/A   Clear
12:55 AM 55.4 °F 41.0 °F 58% 30.06 in 10.0 mi SSE 6.9 mph - N/A   Clear
1:15 AM 55.4 °F 41.0 °F 58% 30.06 in 10.0 mi SSE 4.6 mph - N/A   Clear
1:35 AM 55.4 °F 41.0 °F 58% 30.06 in 10.0 mi SSE 4.6 mph - N/A   Clear
1:55 AM 55.4 °F 41.0 °F 58% 30.06 in 10.0 mi SSE 5.8 mph - N/A   Clear
2:15 AM 55.4 °F 42.8 °F 63% 30.05 in 10.0 mi SSE 6.9 mph - N/A   Clear
2:35 AM 55.4 °F 42.8 °F 63% 30.05 in 10.0 mi SSE 5.8 mph - N/A   Clear
3:15 AM 55.4 °F 42.8 °F 63% 30.04 in 10.0 mi SSE 6.9 mph - N/A   Clear
3:35 AM 55.4 °F 42.8 °F 63% 30.04 in 10.0 mi SSE 5.8 mph - N/A   Clear
3:55 AM 53.6 °F 42.8 °F 67% 30.04 in 10.0 mi SSE 6.9 mph - N/A   Clear
4:15 AM 53.6 °F 44.6 °F 72% 30.04 in 10.0 mi SSE 6.9 mph - N/A   Clear
4:35 AM 55.4 °F 44.6 °F 67% 30.04 in 10.0 mi South 8.1 mph - N/A   Clear
4:55 AM 55.4 °F 46.4 °F 72% 30.04 in 10.0 mi South 8.1 mph - N/A   Clear
5:15 AM 59.0 °F 48.2 °F 67% 30.04 in 10.0 mi South 9.2 mph - N/A   Clear
5:35 AM 59.0 °F 48.2 °F 67% 30.04 in 10.0 mi South 9.2 mph - N/A   Clear
5:55 AM 60.8 °F 48.2 °F 63% 30.04 in 10.0 mi South 12.7 mph 16.1 mph N/A   Clear
6:15 AM 59.0 °F 48.2 °F 67% 30.04 in 10.0 mi South 10.4 mph - N/A   Clear
6:35 AM 59.0 °F 48.2 °F 67% 30.04 in 10.0 mi South 9.2 mph - N/A   Clear
6:55 AM 59.0 °F 48.2 °F 67% 30.05 in 10.0 mi South 10.4 mph - N/A   Clear
7:15 AM 59.0 °F 48.2 °F 67% 30.05 in 10.0 mi South 11.5 mph - N/A   Clear
7:35 AM 60.8 °F 50.0 °F 68% 30.06 in 10.0 mi South 12.7 mph - N/A   Clear
7:55 AM 62.6 °F 50.0 °F 63% 30.07 in 10.0 mi South 13.8 mph 20.7 mph N/A   Clear
8:15 AM 64.4 °F 50.0 °F 59% 30.07 in 10.0 mi South 10.4 mph - N/A   Clear
8:35 AM 66.2 °F 50.0 °F 56% 30.07 in 10.0 mi South 13.8 mph 19.6 mph N/A   Clear
9:15 AM 69.8 °F 50.0 °F 49% 30.08 in 10.0 mi South 10.4 mph 18.4 mph N/A   Clear
9:35 AM 69.8 °F 48.2 °F 46% 30.08 in 10.0 mi South 9.2 mph 16.1 mph N/A   Clear
9:55 AM 71.6 °F 46.4 °F 41% 30.08 in 10.0 mi South 16.1 mph 21.9 mph N/A   Clear
10:15 AM 73.4 °F 44.6 °F 36% 30.08 in 10.0 mi South 15.0 mph 28.8 mph N/A   Clear
10:35 AM 73.4 °F 44.6 °F 36% 30.07 in 10.0 mi South 18.4 mph 24.2 mph N/A   Clear
10:55 AM 75.2 °F 46.4 °F 36% 30.07 in 10.0 mi SSW 17.3 mph 25.3 mph N/A   Clear
11:15 AM 77.0 °F 46.4 °F 34% 30.06 in 10.0 mi South 15.0 mph 23.0 mph N/A   Clear
11:35 AM 78.8 °F 46.4 °F 32% 30.05 in 10.0 mi South 23.0 mph 27.6 mph N/A   Clear
11:55 AM 80.6 °F 46.4 °F 30% 30.04 in 10.0 mi South 17.3 mph 24.2 mph N/A   Clear
12:15 PM 80.6 °F 48.2 °F 32% 30.03 in 10.0 mi SSW 15.0 mph 24.2 mph N/A   Clear
12:35 PM 82.4 °F 50.0 °F 32% 30.02 in 10.0 mi South 16.1 mph 23.0 mph N/A   Clear
12:55 PM 82.4 °F 50.0 °F 32% 30.00 in 10.0 mi South 18.4 mph 26.5 mph N/A   Clear
1:15 PM 80.6 °F 50.0 °F 34% 29.99 in 10.0 mi South 17.3 mph 27.6 mph N/A   Clear
1:35 PM 82.4 °F 50.0 °F 32% 29.98 in 10.0 mi South 13.8 mph 24.2 mph N/A   Clear
1:55 PM 82.4 °F 50.0 °F 32% 29.97 in 10.0 mi SSW 19.6 mph 29.9 mph N/A   Clear
2:15 PM 80.6 °F 50.0 °F 34% 29.97 in 10.0 mi South 16.1 mph 26.5 mph N/A   Clear
2:35 PM 80.6 °F 50.0 °F 34% 29.97 in 10.0 mi South 15.0 mph 25.3 mph N/A   Clear
2:55 PM 80.6 °F 50.0 °F 34% 29.96 in 10.0 mi South 17.3 mph 28.8 mph N/A   Clear
3:15 PM 80.6 °F 50.0 °F 34% 29.96 in 10.0 mi South 16.1 mph 24.2 mph N/A   Clear
3:35 PM 82.4 °F 50.0 °F 32% 29.95 in 10.0 mi South 16.1 mph 26.5 mph N/A   Clear
3:55 PM 80.6 °F 50.0 °F 34% 29.95 in 10.0 mi South 16.1 mph 27.6 mph N/A   Clear
4:15 PM 80.6 °F 48.2 °F 32% 29.96 in 10.0 mi South 17.3 mph 24.2 mph N/A   Clear
4:35 PM 80.6 °F 50.0 °F 34% 29.96 in 10.0 mi South 16.1 mph 26.5 mph N/A   Clear
4:55 PM 80.6 °F 48.2 °F 32% 29.96 in 10.0 mi South 15.0 mph 23.0 mph N/A   Clear
5:15 PM 78.8 °F 48.2 °F 34% 29.96 in 10.0 mi South 13.8 mph 21.9 mph N/A   Clear
5:35 PM 77.0 °F 48.2 °F 36% 29.96 in 10.0 mi South 13.8 mph 19.6 mph N/A   Clear
5:55 PM 75.2 °F 50.0 °F 41% 29.96 in 10.0 mi South 10.4 mph 16.1 mph N/A   Clear
6:15 PM 73.4 °F 50.0 °F 44% 29.97 in 10.0 mi South 10.4 mph - N/A   Clear
6:35 PM 73.4 °F 46.4 °F 38% 29.97 in 10.0 mi South 12.7 mph 17.3 mph N/A   Clear
7:15 PM 71.6 °F 46.4 °F 41% 29.98 in 10.0 mi South 11.5 mph 16.1 mph N/A   Clear
7:35 PM 69.8 °F 46.4 °F 43% 29.99 in 10.0 mi South 12.7 mph 18.4 mph N/A   Clear
7:55 PM 69.8 °F 46.4 °F 43% 29.99 in 10.0 mi South 12.7 mph 17.3 mph N/A   Clear
8:15 PM 69.8 °F 46.4 °F 43% 29.99 in 10.0 mi South 10.4 mph 16.1 mph N/A   Clear
8:35 PM 68.0 °F 46.4 °F 46% 29.99 in 10.0 mi South 11.5 mph 17.3 mph N/A   Clear
9:15 PM 68.0 °F 48.2 °F 49% 29.99 in 10.0 mi South 12.7 mph 17.3 mph N/A   Clear
9:35 PM 68.0 °F 50.0 °F 52% 29.99 in 10.0 mi South 10.4 mph 17.3 mph N/A   Clear
9:55 PM 69.8 °F 50.0 °F 49% 29.99 in 10.0 mi South 12.7 mph - N/A   Clear
10:15 PM 69.8 °F 50.0 °F 49% 29.99 in 10.0 mi South 16.1 mph - N/A   Clear
10:35 PM 69.8 °F 51.8 °F 53% 29.99 in 10.0 mi South 18.4 mph 21.9 mph N/A   Clear
10:55 PM 68.0 °F 53.6 °F 60% 30.00 in 10.0 mi South 17.3 mph 21.9 mph N/A   Clear
11:15 PM 68.0 °F 53.6 °F 60% 30.00 in 10.0 mi South 17.3 mph 21.9 mph N/A   Clear
11:35 PM 68.0 °F 53.6 °F 60% 30.00 in 10.0 mi South 16.1 mph 26.5 mph N/A   Clear